Weather History for KHUL - March, 2013

Change the Weather History Date:

Friday, March 1, 2013

  Actual Average Record
Temperature  
Mean Temperature 30 °F 20 °F  
Max Temperature 33 °F 31 °F 49 °F (1974)
Min Temperature 27 °F 8 °F -30 °F (1982)
Degree Days  
Heating Degree Days 35 45  
Month to date heating degree days 35 45  
Since 1 July heating degree days 6140 6618  
Moisture  
Dew Point 26 °F    
Average Humidity 85    
Maximum Humidity 92    
Minimum Humidity 78    
Precipitation  
Precipitation 0.06 in 0.08 in 0.76 in (1999)
Month to date precipitation 0.06 0.08  
Year to date precipitation 2.46 4.94  
Sea Level Pressure  
Sea Level Pressure 29.60 in    
Wind  
Wind Speed 10 mph (NNE)    
Max Wind Speed 17 mph    
Max Gust Speed 23 mph    
Visibility 5 miles    
Events Snow    
T = Trace of Precipitation, MM = Missing Value Source: NWS Daily Summary

Daily Weather History Graph

Daily Weather History Graph

Search for Another Location

Airport or City:

Trip Planner

Search our weather history database for the weather conditions in past years. The results will help you decide how hot, cold, wet, or windy it might be!

Date:

Astronomy

Mar. 01, 2013 Rise Set
Actual Time 6:09 AM EST 5:17 PM EST
Civil Twilight 5:39 AM EST 5:47 PM EST
Nautical Twilight 5:05 AM EST 6:22 PM EST
Astronomical Twilight 4:30 AM EST 6:57 PM EST
Moon 10:05 PM EST (3/1) 7:38 AM EST (3/1)
Length of Visible Light 12h 08m
Length of Day
11h 08m
Waning Gibbous, 83% of the Moon is Illuminated
Mar 1
Waning Gibbous
Mar 4
Last Quarter
Mar 11
New
Mar 19
First Quarter
Mar 27
Full

Hourly Weather History & Observations

Time (EST) Temp. Windchill Dew Point Humidity Pressure Visibility Wind Dir Wind Speed Gust Speed Precip Events Conditions
12:08 AM 28.4 °F 19.1 °F 24.8 °F 86% 29.60 in 2.0 mi ENE 10.4 mph - 0.00 in Snow Light Snow
12:18 AM 28.4 °F 19.7 °F 24.8 °F 86% 29.60 in 1.8 mi NE 9.2 mph - 0.00 in Snow Light Snow
12:25 AM 28.4 °F 18.5 °F 24.8 °F 86% 29.60 in 2.0 mi NE 11.5 mph - 0.00 in Snow Light Snow
12:50 AM 28.4 °F 18.5 °F 24.8 °F 86% 29.60 in 1.8 mi NE 11.5 mph - 0.00 in Snow Light Snow
12:53 AM 28.4 °F 19.7 °F 24.8 °F 86% 29.60 in 1.8 mi NE 9.2 mph - N/A Snow Light Snow
12:57 AM 28.4 °F 19.7 °F 24.8 °F 86% 29.60 in 2.0 mi NE 9.2 mph - 0.00 in Snow Light Snow
1:05 AM 28.4 °F 18.5 °F 24.8 °F 86% 29.60 in 2.5 mi NE 11.5 mph - 0.00 in Snow Light Snow
1:13 AM 28.4 °F 19.7 °F 24.8 °F 86% 29.60 in 3.0 mi NE 9.2 mph - 0.00 in Snow Light Snow
1:22 AM 28.4 °F 20.4 °F 24.8 °F 86% 29.59 in 3.0 mi NE 8.1 mph - 0.00 in Snow Light Snow
1:36 AM 28.4 °F 19.7 °F 24.8 °F 86% 29.59 in 2.5 mi NE 9.2 mph - 0.00 in Snow Light Snow
1:49 AM 28.4 °F 20.4 °F 24.8 °F 86% 29.59 in 3.0 mi NE 8.1 mph - 0.00 in Snow Light Snow
1:53 AM 28.9 °F 21.1 °F 25.0 °F 85% 29.61 in 4.0 mi NE 8.1 mph - 0.00 in Snow Light Snow
2:53 AM 28.0 °F 17.0 °F 24.1 °F 85% 29.61 in 3.0 mi NE 13.8 mph 20.7 mph 0.00 in Snow Light Snow
3:07 AM 28.4 °F 18.0 °F 24.8 °F 86% 29.59 in 5.0 mi NE 12.7 mph - 0.00 in   Overcast
3:30 AM 28.4 °F 18.5 °F 24.8 °F 86% 29.59 in 2.0 mi NNE 11.5 mph - 0.00 in Snow Light Snow
3:36 AM 28.4 °F 19.7 °F 24.8 °F 86% 29.59 in 1.8 mi NNE 9.2 mph - 0.00 in Snow Light Snow
3:48 AM 28.4 °F 19.1 °F 24.8 °F 86% 29.60 in 1.5 mi NNE 10.4 mph - 0.00 in Snow Light Snow
3:53 AM 28.0 °F 19.3 °F 24.1 °F 85% 29.62 in 1.2 mi NNE 9.2 mph - 0.00 in Snow Light Snow
4:08 AM 28.4 °F 19.7 °F 24.8 °F 86% 29.60 in 1.5 mi NE 9.2 mph 17.3 mph 0.00 in Snow Light Snow
4:28 AM 28.4 °F 19.7 °F 24.8 °F 86% 29.60 in 2.0 mi NNE 9.2 mph - 0.00 in Snow Light Snow
4:53 AM 28.0 °F 18.6 °F 24.1 °F 85% 29.63 in 2.0 mi NNE 10.4 mph - 0.00 in Snow Light Snow
5:01 AM 28.4 °F 19.1 °F 24.8 °F 86% 29.61 in 1.2 mi NNE 10.4 mph - 0.00 in Snow Light Snow
5:15 AM 28.4 °F 18.5 °F 24.8 °F 86% 29.60 in 1.5 mi NNE 11.5 mph - 0.01 in Snow Light Snow
5:28 AM 28.4 °F 18.0 °F 24.8 °F 86% 29.60 in 2.5 mi NNE 12.7 mph - 0.02 in Snow Light Snow
5:53 AM 27.0 °F 16.1 °F 24.1 °F 89% 29.63 in 1.5 mi NNE 12.7 mph - 0.02 in Snow Light Snow
6:04 AM 26.6 °F 15.2 °F 24.8 °F 93% 29.61 in 1.2 mi NNE 13.8 mph - 0.00 in Snow Light Snow
6:39 AM 26.6 °F 16.2 °F 24.8 °F 93% 29.62 in 1.2 mi NNE 11.5 mph - 0.01 in Snow Light Snow
6:43 AM 26.6 °F 16.2 °F 24.8 °F 93% 29.62 in 2.0 mi NNE 11.5 mph - 0.01 in Snow Light Snow
6:53 AM 27.0 °F 16.1 °F 24.1 °F 89% 29.64 in 2.0 mi North 12.7 mph - 0.01 in Snow Light Snow
7:03 AM 26.6 °F 15.7 °F 24.8 °F 93% 29.62 in 2.5 mi NNE 12.7 mph - 0.00 in Snow Light Snow
7:11 AM 26.6 °F 16.8 °F 24.8 °F 93% 29.62 in 4.0 mi NNE 10.4 mph - 0.00 in Snow Light Snow
7:18 AM 26.6 °F 17.5 °F 24.8 °F 93% 29.62 in 6.0 mi NNE 9.2 mph - 0.00 in   Overcast
7:53 AM 28.4 °F 19.1 °F 24.8 °F 86% 29.63 in 10.0 mi NNE 10.4 mph - N/A   Overcast
8:53 AM 28.0 °F 19.3 °F 24.1 °F 85% 29.65 in 10.0 mi North 9.2 mph - N/A   Overcast
9:41 AM 28.4 °F 20.4 °F 24.8 °F 86% 29.64 in 10.0 mi North 8.1 mph - N/A   Overcast
9:53 AM 28.4 °F 20.4 °F 24.8 °F 86% 29.64 in 10.0 mi North 8.1 mph - N/A   Overcast
10:05 AM 30.2 °F 21.9 °F 24.8 °F 80% 29.63 in 10.0 mi North 9.2 mph - N/A   Overcast
10:39 AM 30.2 °F 20.8 °F 24.8 °F 80% 29.62 in 10.0 mi North 11.5 mph - N/A   Overcast
10:53 AM 30.0 °F 21.1 °F 24.1 °F 79% 29.63 in 10.0 mi North 10.4 mph - N/A   Overcast
11:01 AM 30.2 °F 20.2 °F 24.8 °F 80% 29.61 in 10.0 mi North 12.7 mph - N/A   Overcast
11:28 AM 30.2 °F 19.8 °F 24.8 °F 80% 29.62 in 10.0 mi North 13.8 mph - N/A   Overcast
11:53 AM 30.2 °F 20.2 °F 24.8 °F 80% 29.61 in 10.0 mi North 12.7 mph - N/A   Overcast
12:06 PM 30.2 °F 20.2 °F 24.8 °F 80% 29.60 in 10.0 mi North 12.7 mph - N/A   Overcast
12:53 PM 30.9 °F 21.2 °F 25.0 °F 79% 29.62 in 10.0 mi North 12.7 mph - N/A   Overcast
1:53 PM 30.9 °F 22.2 °F 25.0 °F 79% 29.62 in 10.0 mi North 10.4 mph - 0.01 in   Overcast
2:01 PM 30.2 °F 21.3 °F 24.8 °F 80% 29.60 in 9.0 mi North 10.4 mph - N/A   Overcast
2:36 PM 30.2 °F 20.2 °F 26.6 °F 86% 29.60 in 1.8 mi North 12.7 mph - 0.01 in Snow Light Snow
2:51 PM 30.2 °F 20.8 °F 26.6 °F 86% 29.60 in 1.2 mi North 11.5 mph - 0.01 in Snow Light Snow
2:53 PM 30.9 °F 21.2 °F 27.0 °F 85% 29.62 in 1.2 mi North 12.7 mph - 0.01 in Snow Light Snow
3:01 PM 30.2 °F 20.8 °F 26.6 °F 86% 29.60 in 1.2 mi North 11.5 mph - 0.00 in Snow Light Snow
3:05 PM 30.2 °F 20.8 °F 26.6 °F 86% 29.60 in 2.0 mi North 11.5 mph - 0.00 in Snow Light Snow
3:38 PM 30.2 °F 20.8 °F 26.6 °F 86% 29.60 in 4.0 mi North 11.5 mph - 0.00 in Snow Light Snow
3:48 PM 30.2 °F 21.9 °F 26.6 °F 86% 29.60 in 7.0 mi North 9.2 mph - 0.00 in   Overcast
3:53 PM 30.9 °F 21.7 °F 26.1 °F 82% 29.62 in 8.0 mi North 11.5 mph - 0.00 in   Overcast
4:53 PM 30.2 °F 21.9 °F 26.6 °F 86% 29.60 in 10.0 mi North 9.2 mph - N/A   Overcast
5:53 PM 30.9 °F 23.5 °F 27.0 °F 85% 29.63 in 10.0 mi North 8.1 mph - N/A   Overcast
6:13 PM 30.2 °F 24.3 °F 26.6 °F 86% 29.61 in 10.0 mi NNE 5.8 mph - N/A   Overcast
6:53 PM 30.2 °F 26.7 °F 26.6 °F 86% 29.60 in 10.0 mi North 3.5 mph - N/A   Overcast
7:44 PM 30.2 °F 24.3 °F 28.4 °F 93% 29.59 in 6.0 mi NNE 5.8 mph - 0.00 in Snow Light Snow
7:50 PM 30.2 °F 24.3 °F 28.4 °F 93% 29.59 in 2.5 mi NNE 5.8 mph - 0.00 in Snow Light Snow
7:53 PM 32.0 °F 27.5 °F 28.0 °F 85% 29.61 in 1.5 mi North 4.6 mph - 0.00 in Snow Light Snow
8:03 PM 32.0 °F 28.7 °F 28.4 °F 87% 29.58 in 3.0 mi North 3.5 mph - 0.00 in Snow Light Snow
8:16 PM 32.0 °F 27.5 °F 28.4 °F 87% 29.58 in 2.0 mi North 4.6 mph - 0.00 in Snow Light Snow
8:36 PM 32.0 °F 26.4 °F 28.4 °F 87% 29.58 in 3.0 mi North 5.8 mph - 0.00 in   Overcast
8:53 PM 32.0 °F 25.6 °F 30.2 °F 93% 29.57 in 9.0 mi NNW 6.9 mph - N/A   Overcast
9:04 PM 32.0 °F 25.6 °F 28.4 °F 87% 29.57 in 10.0 mi NNW 6.9 mph - N/A   Overcast
9:53 PM 32.0 °F 22.5 °F 28.0 °F 85% 29.58 in 10.0 mi North 12.7 mph - N/A   Overcast
10:11 PM 32.0 °F 21.2 °F 26.6 °F 80% 29.56 in 10.0 mi North 16.1 mph - N/A   Overcast
10:40 PM 30.2 °F 20.8 °F 26.6 °F 86% 29.56 in 10.0 mi North 11.5 mph - N/A   Overcast
10:53 PM 30.9 °F 21.7 °F 26.1 °F 82% 29.58 in 10.0 mi North 11.5 mph - N/A   Overcast
11:26 PM 30.2 °F 21.3 °F 24.8 °F 80% 29.56 in 10.0 mi North 10.4 mph - N/A   Overcast
11:53 PM 30.0 °F 21.1 °F 24.1 °F 79% 29.58 in 10.0 mi North 10.4 mph - N/A   Overcast